Location: Ku?niki
(51.4449°N, 17.8974°E)
Time: 11:35:16
(UTC+00:00)

VELOX 1 - Visible Passes

Search period start: 30 June 2022 00:00
Search period end: 10 July 2022 00:00
Orbit: 625 x 638 km, 98.4° (Epoch: 24 June)

Date Brightness Start Highest point End Pass type
(mag) Time Alt. Az. Time Alt. Az. Time Alt. Az.
01 Jul ? 01:16:27 10° ENE 01:17:46 11° NE 01:19:06 10° NNE visible
02 Jul ? 01:35:43 10° E 01:38:23 16° NE 01:41:03 10° NNE visible
06 Jul ? 01:23:53 10° ENE 01:25:48 13° NE 01:27:43 10° NNE visible
07 Jul ? 01:43:26 10° E 01:46:24 18° ENE 01:49:23 10° NNE visible
